GFSSGP_sfc_dewp_021.txt.gz
Dewpoint
65 60 49 46 29 30 26 27 26 32 37 38 36 32 34 38 39 36 54 60 65 67 71 73 74 73 72 71 71 70 70 69 68 66 64 63 63 62 62 61 61 60 60 61 62 62 63 62 62
54 49 39 39 29 29 26 30 28 32 40 41 35 36 42 43 48 54 53 64 66 69 71 71 73 73 72 71 71 70 69 69 68 66 65 64 64 63 63 62 62 62 62 63 63 63 63 64 65
54 49 31 32 31 29 28 32 37 39 42 39 38 38 40 46 50 55 58 64 68 69 70 70 73 73 72 71 71 70 70 69 68 67 66 65 65 65 64 64 63 63 63 64 64 64 64 65 65
47 43 33 28 29 33 33 35 37 37 41 41 41 39 40 45 50 51 64 65 67 68 69 71 72 73 72 71 71 70 70 70 69 68 67 67 66 67 66 64 65 65 65 66 66 67 66 67 66
45 34 26 27 27 32 35 33 31 31 41 40 40 40 40 46 50 61 64 64 64 67 68 70 72 72 72 72 71 70 70 70 69 69 68 67 68 68 67 66 66 66 66 66 67 67 68 69 68
37 32 27 22 24 27 31 31 32 36 41 40 40 42 41 44 53 61 63 63 63 65 66 69 72 72 72 71 71 70 70 70 70 70 69 69 69 69 67 67 67 67 67 67 68 69 69 69 69
33 28 25 27 28 29 31 33 32 30 31 34 41 41 41 42 48 57 62 62 63 63 65 68 69 70 72 71 71 71 70 70 70 70 70 70 70 70 69 69 68 68 68 69 69 69 69 69 69
37 30 27 26 25 26 31 31 32 30 32 33 40 38 37 40 45 49 61 62 63 61 62 66 67 68 68 69 71 71 71 70 70 70 70 70 71 71 71 70 70 69 69 70 70 69 68 68 67
34 28 25 25 26 27 29 34 35 35 33 33 35 37 38 40 41 43 51 57 61 62 61 64 65 66 66 66 69 71 71 71 71 70 70 70 69 69 68 70 69 69 70 70 70 69 68 67 66
46 31 26 25 24 26 26 31 35 34 35 33 33 38 39 39 38 38 38 46 59 60 62 64 64 64 65 64 65 69 68 68 69 68 68 68 67 67 68 69 69 69 70 70 69 69 67 66 62
46 42 38 33 27 32 31 29 28 30 30 31 31 35 35 37 38 37 37 37 43 58 62 64 64 62 63 62 63 67 68 67 68 67 66 67 67 66 67 65 66 68 70 68 67 67 66 62 62
42 44 44 44 44 44 42 37 35 32 30 32 33 35 37 35 36 36 36 38 36 48 59 63 65 64 62 61 62 64 66 66 67 67 67 67 66 64 64 63 63 66 66 66 64 63 62 62 62
30 37 41 41 39 38 41 40 39 36 35 35 35 35 36 37 37 37 38 39 38 37 49 61 65 65 64 60 60 62 65 64 65 67 67 67 66 64 63 62 62 63 63 64 62 61 60 61 61
25 25 26 28 29 35 34 34 34 34 35 34 34 35 35 34 35 34 36 38 39 39 40 56 65 65 65 63 59 61 63 63 65 67 67 67 65 64 63 62 62 62 62 62 62 61 61 61 61
24 21 22 23 24 23 25 25 27 32 35 33 33 33 33 35 35 35 36 37 37 37 40 51 63 65 65 65 62 61 62 63 64 66 67 66 65 64 63 62 62 62 62 62 61 61 61 60 60
26 26 23 23 23 24 23 26 30 32 33 33 33 33 33 33 34 33 35 37 38 39 40 46 58 64 65 65 64 63 64 63 63 65 66 65 65 64 63 63 63 63 62 62 61 60 60 62 60
24 23 23 24 22 23 23 25 28 29 28 28 30 31 32 32 35 36 37 36 38 40 40 42 56 63 65 65 64 63 64 64 64 64 65 65 65 64 63 63 63 62 62 61 61 60 60 58 58
22 23 25 24 24 23 22 23 24 28 28 27 27 27 28 29 30 31 35 37 39 42 45 46 58 63 64 64 63 64 65 65 65 65 65 65 65 64 64 64 62 62 62 61 61 60 59 60 58
20 22 24 24 24 24 23 23 24 26 26 25 26 27 29 33 33 34 35 38 42 44 46 48 58 61 63 63 63 63 64 64 64 65 66 65 65 65 64 63 62 62 62 61 60 59 59 59 60
18 19 20 23 24 23 22 23 24 25 26 27 28 29 30 30 30 32 36 41 42 44 46 48 55 62 63 63 63 63 64 63 62 64 65 65 65 65 63 62 62 62 61 60 59 58 57 57 58
17 20 20 20 22 21 21 19 19 19 23 23 24 28 30 30 31 34 36 38 40 42 44 48 56 62 63 63 63 62 61 61 61 62 63 64 64 64 63 62 62 61 60 59 58 58 57 56 55
13 17 20 24 22 19 21 13 14 14 16 21 21 25 29 29 32 34 34 35 38 38 44 49 58 64 64 64 63 61 60 60 60 61 61 62 63 63 62 62 61 60 59 58 58 58 57 56 54
14 20 20 18 17 22 22 20 17 19 17 17 18 20 26 30 31 32 32 33 36 44 59 62 64 65 65 64 62 60 59 59 60 61 60 62 61 62 62 62 61 59 58 58 58 58 57 56 55
13 17 19 18 21 18 18 19 15 16 18 20 24 26 28 28 30 36 55 59 60 64 64 65 65 64 64 63 61 60 59 60 60 60 59 59 59 60 61 60 60 59 58 58 58 58 57 57 56
16 11 12 14 17 15 18 18 16 21 24 23 23 24 25 27 43 55 55 59 62 64 64 64 64 62 61 61 60 60 59 59 59 59 59 58 59 58 58 59 58 57 58 58 58 58 57 57 56
13 11 13 11 16 14 16 16 18 22 22 20 20 20 26 42 55 57 59 61 62 62 62 63 61 60 60 60 59 59 58 59 59 59 59 59 58 58 58 58 58 58 59 59 59 59 58 57 57
19 9 10 7 13 12 18 20 22 21 18 20 20 26 40 54 56 59 61 61 61 60 60 60 59 59 59 58 58 58 58 59 59 58 58 58 58 58 58 58 57 58 59 59 59 59 58 58 57
18 20 9 11 10 12 16 18 17 21 23 24 24 23 44 55 58 60 60 60 60 60 59 60 59 58 58 59 59 59 58 58 59 58 58 58 58 57 58 57 57 58 59 60 59 58 57 57 57
17 20 18 11 12 14 14 18 23 20 21 21 24 27 52 56 59 60 60 60 60 59 59 59 59 58 59 59 59 58 58 58 58 58 57 56 56 56 57 57 57 58 58 59 58 58 58 58 57
22 20 22 14 11 17 18 16 19 24 23 32 34 44 55 58 59 59 60 59 59 58 59 59 59 58 58 59 58 58 58 58 57 57 56 57 57 57 57 57 56 57 58 59 58 59 60 58 58

GFSSGP_sfc_dewp_024.txt.gz
Dewpoint
65 62 48 45 29 29 25 24 26 27 35 38 35 37 41 41 39 37 54 62 64 66 72 73 74 73 72 72 71 71 71 70 69 68 67 66 66 64 63 63 61 61 60 61 62 62 62 62 61
56 50 40 38 24 25 19 28 27 29 40 42 38 40 41 39 45 50 52 63 65 68 71 72 74 73 73 72 71 71 70 69 69 68 67 66 66 65 62 62 61 61 61 62 62 62 63 63 64
51 47 32 34 29 26 21 31 34 37 37 41 38 40 44 44 51 53 57 65 67 69 70 70 74 73 73 72 71 71 70 69 69 68 67 67 67 66 65 63 62 62 62 63 63 63 63 63 65
48 42 33 28 30 32 30 34 38 32 34 41 39 39 40 47 52 53 63 67 67 68 69 71 73 73 73 72 72 71 70 70 69 69 68 68 67 67 67 64 64 64 64 64 64 65 65 65 65
43 34 26 26 26 30 34 35 32 31 36 40 40 40 40 44 51 61 64 66 66 68 68 69 73 73 73 72 72 71 71 70 69 69 69 68 68 68 66 65 65 65 66 66 66 67 67 68 68
37 33 27 21 24 27 29 30 32 32 39 32 39 40 39 44 51 61 64 64 64 67 68 68 72 73 72 72 72 71 71 70 70 69 69 69 69 68 67 66 66 66 66 66 67 67 68 70 69
34 29 26 26 27 28 29 32 31 30 32 31 42 40 40 41 49 62 63 63 63 65 66 67 70 71 73 72 71 71 70 70 70 69 69 69 69 69 68 68 68 67 68 68 68 69 69 69 69
36 30 28 27 25 24 29 31 31 32 32 35 38 34 35 40 48 61 62 62 62 63 65 65 68 69 69 69 72 71 71 70 70 70 70 70 70 70 69 69 69 68 69 69 69 69 69 68 68
34 29 26 25 26 24 29 32 33 35 35 35 36 34 37 42 44 53 58 60 62 62 62 64 66 67 68 68 69 71 71 71 71 71 71 69 68 69 68 69 69 69 70 70 70 70 69 67 66
35 28 26 25 26 25 26 29 29 30 32 35 36 36 38 41 39 40 44 53 59 61 61 62 65 66 66 65 66 68 68 68 69 69 69 69 68 68 69 69 69 69 70 70 70 70 68 66 65
46 38 27 27 25 26 29 31 34 33 31 32 34 35 36 37 37 38 38 43 51 58 61 61 63 64 64 64 64 66 68 67 68 68 68 68 67 68 68 67 68 68 69 69 69 69 67 65 63
43 45 41 38 40 43 42 44 42 38 36 36 33 35 36 35 37 37 37 38 38 44 58 61 63 63 63 63 62 63 66 66 67 67 67 67 67 66 67 66 65 66 67 68 67 66 66 65 63
38 41 44 44 43 43 42 41 42 41 41 39 37 37 37 37 38 38 38 38 39 39 44 58 63 63 62 62 61 62 64 64 64 66 67 66 66 65 65 65 63 64 65 66 65 64 63 62 62
25 26 29 34 38 35 36 37 37 38 38 37 37 37 37 37 37 37 36 36 40 40 41 46 63 64 64 62 61 60 61 63 63 64 66 66 66 65 64 63 63 63 64 65 65 63 62 61 62
25 22 23 24 25 28 27 28 30 32 33 32 34 35 35 36 37 37 37 38 38 38 41 44 56 64 64 64 61 59 60 62 62 63 66 66 65 64 64 63 63 63 64 64 63 63 63 62 62
26 25 20 22 23 24 27 26 29 33 33 33 33 33 35 36 36 37 38 39 40 41 41 44 51 63 64 64 63 60 60 62 62 63 66 66 65 64 63 63 63 63 63 63 63 62 62 62 62
24 19 23 23 24 24 24 25 31 31 30 30 30 31 32 31 35 38 38 38 40 40 42 43 51 59 64 64 65 63 62 62 62 64 66 66 65 64 64 63 64 64 64 63 63 62 62 62 62
22 23 24 24 24 23 22 23 26 26 26 28 29 30 31 31 33 35 37 38 38 42 44 46 47 55 63 64 64 64 64 64 64 64 65 65 65 64 64 64 64 64 63 63 62 62 62 62 61
19 21 22 24 26 24 22 22 23 26 26 25 26 26 27 29 31 36 38 39 40 44 46 47 49 56 63 64 63 62 63 64 64 65 65 65 65 65 64 64 63 63 63 63 63 62 62 61 61
17 17 18 22 23 23 24 23 24 24 24 24 26 28 31 33 33 34 35 38 40 43 46 48 50 60 63 64 63 63 63 64 64 65 65 66 65 65 64 64 63 63 63 63 62 61 60 60 60
17 18 19 19 22 21 22 21 22 23 24 23 23 25 26 29 31 32 33 36 38 42 44 46 50 59 63 63 63 62 62 62 62 64 65 65 65 65 64 63 63 63 63 62 61 60 60 59 58
13 18 20 23 23 19 22 17 19 20 19 19 19 22 24 29 30 31 33 36 37 39 42 45 50 59 62 63 62 62 60 60 61 63 64 65 65 64 64 63 63 62 62 61 61 60 59 58 57
15 18 17 17 15 15 17 19 15 18 18 19 19 17 19 24 28 29 30 32 37 43 44 48 55 62 63 63 62 61 60 60 62 62 62 63 63 64 63 63 62 62 61 61 60 60 59 59 58
14 18 20 20 19 16 13 17 13 12 15 17 21 22 22 22 27 31 34 56 59 62 62 63 63 63 63 63 61 60 60 60 61 61 61 61 61 62 62 62 62 61 60 60 60 60 59 59 58
13 12 13 15 15 11 16 16 10 20 21 22 23 24 27 29 29 32 53 58 62 62 62 63 63 61 61 61 60 60 61 61 60 60 60 60 60 60 61 60 60 60 60 60 60 60 60 59 58
14 12 13 11 12 12 15 16 18 21 21 23 24 23 24 25 30 52 57 61 62 62 63 62 61 60 61 60 60 60 60 60 61 61 60 60 59 59 60 60 60 59 60 60 60 60 60 59 59
16 13 14 8 11 10 16 19 21 19 17 19 20 23 24 26 49 58 60 62 61 60 60 60 60 60 59 59 59 59 60 60 59 59 60 59 59 59 59 59 59 59 60 61 61 60 60 60 59
18 17 9 10 6 10 14 16 17 19 21 22 25 27 27 46 57 58 60 59 59 59 59 59 59 59 59 59 59 59 59 60 59 59 59 59 59 59 59 58 59 59 60 61 61 61 60 59 59
19 18 17 11 14 13 14 16 23 20 24 26 35 47 35 53 57 59 59 59 58 59 59 58 58 58 58 58 58 58 59 59 59 59 59 58 58 58 58 58 58 59 60 60 60 60 60 59 59
24 19 19 16 12 12 15 12 18 23 26 28 29 52 53 57 58 58 59 58 58 58 58 58 58 58 58 58 58 58 58 58 58 58 57 57 57 58 58 58 58 58 59 60 60 60 60 59 59

GFSSGP_sfc_dewp_027.txt.gz
Dewpoint
63 59 46 44 29 30 20 19 24 26 35 37 34 40 41 41 41 39 56 61 62 64 69 72 74 74 73 73 73 73 73 72 72 72 71 70 69 68 66 66 65 63 62 61 61 61 62 62 62
59 47 42 39 23 18 12 23 26 28 38 38 39 39 41 38 43 47 51 62 63 67 70 68 74 73 73 73 72 72 71 71 71 70 69 68 68 67 65 64 63 62 62 62 63 63 63 63 64
50 43 34 35 25 14 12 26 27 35 35 35 38 39 41 41 48 50 55 63 64 68 69 70 74 73 73 73 72 71 71 70 70 69 68 68 68 67 66 65 64 62 62 63 63 63 64 65 65
47 41 33 28 26 27 25 34 35 33 34 38 40 37 39 45 49 52 61 63 65 66 67 70 74 73 73 73 72 71 71 70 70 69 69 68 68 68 67 66 66 63 64 64 64 65 65 65 65
43 35 24 25 23 26 32 32 34 30 32 38 39 37 39 45 56 61 63 64 63 65 68 67 74 73 73 73 72 71 71 70 70 69 69 69 68 68 68 67 65 64 65 66 66 66 67 67 67
35 34 23 14 17 22 26 27 28 30 35 35 39 39 40 44 53 61 62 63 63 65 68 67 73 73 73 73 72 71 71 70 70 70 70 69 69 69 68 68 66 66 67 67 67 68 68 68 68
30 30 20 22 19 21 17 24 27 30 32 34 40 39 41 40 48 60 62 63 64 65 67 66 67 71 73 73 72 71 71 71 70 70 69 70 70 69 69 69 68 68 69 69 69 69 69 69 69
35 32 23 22 17 17 25 31 32 31 32 34 37 34 36 40 57 61 61 61 61 64 64 65 67 67 67 67 72 72 71 71 70 70 70 70 70 69 69 69 69 69 69 69 69 69 69 69 68
35 28 23 19 22 19 28 28 33 33 34 35 35 36 38 45 57 58 59 59 60 61 64 65 65 68 66 64 67 72 72 71 71 70 70 69 64 65 65 66 69 70 70 70 70 70 70 68 67
35 31 26 24 24 24 26 27 28 29 32 32 36 37 36 39 38 39 43 48 56 60 62 62 67 66 67 63 67 68 67 66 68 66 67 66 66 66 63 66 69 70 70 70 70 71 70 67 62
39 31 30 27 23 25 22 22 25 28 31 32 33 37 37 36 39 39 37 39 40 47 59 62 66 68 67 66 66 66 68 67 68 68 69 69 67 66 65 64 65 65 68 66 68 67 66 64 64
35 37 34 31 27 25 23 23 28 32 32 37 41 42 41 39 40 39 39 39 40 45 50 63 65 67 69 65 64 64 64 66 65 66 69 68 67 67 67 63 63 66 63 66 67 66 67 66 65
36 33 39 39 39 37 41 40 37 39 41 42 41 41 41 40 41 42 42 43 46 48 51 54 64 67 68 69 65 65 64 64 64 64 67 67 66 67 65 66 64 65 63 64 66 66 66 66 65
26 30 34 37 41 42 40 38 39 39 40 40 40 40 39 40 41 41 44 46 51 51 52 52 59 68 68 68 68 66 66 65 65 64 66 68 66 67 64 65 63 65 64 62 65 66 66 65 64
24 24 25 26 33 37 39 36 36 37 37 36 36 37 38 39 39 41 44 49 50 50 52 58 59 63 69 69 68 66 64 64 64 63 68 67 68 68 67 64 64 67 67 67 68 67 66 65 64
23 24 20 23 24 25 28 26 29 30 31 33 35 35 36 37 39 41 44 50 52 52 54 57 49 56 68 69 68 65 64 63 63 63 63 67 67 67 66 63 63 66 67 65 65 65 64 63 63
23 17 20 21 23 24 26 26 27 30 33 34 35 37 36 36 39 46 45 46 53 56 58 57 58 55 66 69 67 67 68 64 63 63 63 66 67 66 64 63 64 66 65 64 65 65 64 68 67
17 20 19 20 22 24 23 25 26 28 29 30 31 31 32 33 36 41 44 46 49 56 59 61 57 59 62 63 67 65 64 63 63 63 63 66 67 66 66 65 66 64 63 63 66 66 66 68 65
19 21 21 22 25 24 24 25 25 27 29 29 29 31 33 34 35 39 43 47 50 57 59 60 58 61 59 62 62 63 63 64 63 64 66 67 67 66 66 64 65 65 64 66 67 66 66 65 65
20 20 19 21 22 24 26 26 27 28 28 29 31 32 32 33 35 39 43 47 51 54 57 59 58 60 62 62 65 64 64 64 65 65 67 67 67 67 66 66 66 66 63 67 66 66 64 64 63
20 20 20 19 21 23 23 23 25 26 27 28 29 31 32 35 36 38 40 45 49 52 55 56 58 59 63 65 66 66 66 65 65 65 67 67 67 67 67 67 66 66 65 66 65 68 66 63 61
18 18 19 21 21 19 23 17 22 23 24 25 26 29 31 31 33 36 39 44 48 49 50 52 55 58 63 67 66 66 63 63 64 64 66 67 67 67 67 66 65 66 65 66 67 66 65 63 59
16 18 17 17 17 18 18 17 17 19 19 21 26 27 29 30 30 31 33 38 42 45 53 63 61 57 62 67 67 65 65 64 65 65 66 66 67 68 66 66 67 67 65 65 66 65 64 61 60
13 15 17 18 17 13 16 15 13 13 16 18 21 23 27 29 31 32 34 40 45 58 62 65 63 62 64 66 67 67 67 66 64 65 64 65 66 66 66 66 67 67 66 66 64 64 64 63 61
16 14 10 10 12 12 13 14 15 20 19 20 23 23 26 30 34 37 36 44 58 61 63 63 64 64 65 66 66 66 67 67 67 66 65 65 64 64 66 66 66 65 65 64 64 64 63 63 62
16 15 7 3 5 7 13 13 12 22 24 24 26 28 31 34 34 36 46 58 60 63 64 65 65 65 65 65 65 66 66 64 65 66 64 62 63 64 66 65 65 64 63 63 64 62 62 63 62
18 14 13 13 14 9 9 12 15 18 19 21 28 35 37 47 42 41 59 62 63 64 65 65 65 65 64 64 64 65 65 66 65 66 66 63 65 63 64 64 63 62 62 63 64 62 63 63 63
25 19 14 13 7 4 9 11 11 17 23 27 28 35 43 49 47 56 61 62 64 65 64 65 65 64 64 64 64 64 64 64 65 65 64 64 64 63 63 63 62 62 62 63 65 66 65 64 62
28 21 18 16 12 9 10 13 25 25 28 26 25 32 50 48 53 59 61 62 63 63 63 64 63 63 63 63 63 64 63 63 64 64 63 63 63 63 61 61 61 61 62 63 65 65 63 62 63
24 21 21 15 13 11 11 11 23 28 26 28 25 27 51 55 57 59 61 62 62 62 62 62 62 62 62 62 62 63 63 63 63 63 62 62 61 61 60 60 59 59 60 62 62 61 61 61 61

GFSSGP_sfc_dewp_030.txt.gz
Dewpoint
55 53 34 39 28 18 17 18 24 31 33 36 35 37 38 37 36 38 51 55 56 59 65 71 74 74 75 74 73 73 73 73 73 73 73 72 71 70 69 68 66 64 63 62 61 60 60 61 62
52 43 36 30 20 15 16 21 25 31 36 36 36 36 38 39 41 45 48 59 57 62 66 64 74 74 74 74 74 73 73 72 72 72 72 71 71 70 68 65 64 63 62 62 62 62 62 63 63
49 35 25 21 17 12 18 19 29 33 34 34 36 37 40 40 44 43 50 60 59 64 66 64 74 74 74 73 73 73 73 73 72 72 72 71 70 69 68 66 66 63 62 63 64 64 64 64 64
39 34 26 22 17 14 16 27 34 31 35 36 38 35 39 44 46 41 56 58 61 63 64 68 74 74 73 73 73 72 72 72 72 71 71 70 69 68 68 67 67 64 63 64 64 64 64 65 66
40 28 20 16 15 16 20 24 34 31 33 37 38 37 38 46 52 53 57 57 58 61 63 65 74 74 73 73 73 72 72 71 70 70 70 69 69 69 68 68 67 66 65 65 65 66 66 66 66
31 26 17 14 14 15 18 21 26 27 34 36 35 37 40 49 52 54 54 55 55 59 63 63 73 73 73 73 72 72 71 71 70 70 70 70 69 69 68 68 67 68 68 67 67 67 68 68 68
34 23 16 13 12 13 15 17 21 27 34 35 36 36 40 43 49 54 55 55 57 59 63 64 66 71 73 73 72 72 71 71 70 70 70 70 70 69 69 69 69 69 69 69 69 68 68 68 69
34 30 22 15 14 14 15 22 16 23 33 35 37 37 39 42 51 55 54 55 56 59 60 62 65 64 65 65 73 72 71 71 70 70 70 70 70 70 69 69 69 69 70 70 70 69 69 70 69
37 30 26 22 16 15 17 17 21 29 32 34 35 36 39 48 52 51 53 52 52 54 61 63 62 64 63 57 63 72 72 72 71 70 70 69 62 63 63 65 68 70 70 70 69 69 70 69 68
35 31 28 27 25 19 15 17 21 27 32 34 35 37 36 40 43 44 45 45 48 52 55 60 66 65 64 58 61 66 63 65 65 63 64 64 62 62 59 64 69 70 70 70 70 70 70 68 60
36 32 30 30 29 24 22 21 19 24 28 33 34 37 38 39 40 39 37 37 38 41 43 55 64 68 66 63 60 61 63 64 64 64 66 66 61 63 61 60 63 65 68 65 68 68 65 64 61
32 34 34 31 30 28 24 25 24 22 23 29 32 36 39 40 40 40 39 38 39 41 43 49 62 69 70 64 62 62 61 64 62 62 68 66 64 66 63 59 61 65 62 64 65 64 65 65 64
29 30 33 33 33 31 28 27 27 26 29 31 33 38 40 38 39 42 42 43 43 44 48 50 57 67 70 71 65 65 63 62 64 62 66 65 62 66 64 63 60 62 60 62 66 64 64 65 65
24 25 28 31 33 36 35 34 33 34 35 37 39 40 39 37 39 41 42 44 46 46 48 50 53 63 69 69 70 68 69 65 64 62 63 68 64 66 61 63 61 60 61 62 63 64 64 64 63
23 23 25 26 30 33 37 35 35 34 35 36 38 39 38 38 38 39 42 45 47 47 50 55 58 60 69 70 69 68 64 65 63 63 68 66 69 68 67 61 61 59 62 66 64 65 66 63 62
20 21 19 22 25 26 34 33 35 35 34 35 35 34 34 36 36 38 40 44 49 52 52 54 50 52 64 70 67 64 62 63 63 62 64 67 68 68 68 60 61 59 62 61 59 64 62 62 62
20 15 16 17 20 23 26 29 31 31 31 32 32 32 32 34 37 42 43 46 48 51 54 55 57 55 63 66 63 66 70 65 62 62 63 66 67 67 65 62 60 67 60 59 61 60 62 62 64
12 14 15 16 17 21 22 25 26 28 29 30 31 32 34 35 37 38 41 42 46 50 58 61 59 64 64 61 65 62 62 64 64 62 63 66 66 67 67 64 64 64 59 59 59 63 63 68 68
15 14 14 18 18 20 23 23 24 26 27 28 31 32 33 34 35 37 39 42 44 50 59 61 62 68 62 56 58 60 60 63 63 63 66 66 67 68 68 64 64 64 61 63 65 64 66 67 67
16 18 19 20 21 22 23 23 25 26 26 28 30 31 32 33 34 35 39 42 46 54 58 62 62 64 63 58 63 61 62 61 63 63 67 68 67 68 67 67 65 66 60 65 66 66 63 67 68
16 17 19 18 21 24 25 24 26 26 28 29 30 32 32 34 35 37 38 42 44 49 57 58 61 64 64 64 63 66 66 66 64 65 66 67 68 67 68 68 66 66 62 62 65 70 65 67 64
12 14 17 19 20 17 23 17 22 23 24 26 28 30 30 32 33 33 35 38 43 44 47 53 58 60 60 65 66 70 63 62 63 65 66 67 68 68 68 68 67 67 62 65 67 68 64 66 63
13 13 17 19 19 20 19 17 20 23 22 24 27 27 29 30 31 30 32 34 37 41 45 53 57 63 63 65 68 66 66 63 65 65 68 68 69 68 67 68 67 66 62 68 66 66 66 65 59
16 13 14 19 19 16 19 17 16 16 19 21 22 23 24 25 27 30 35 37 39 42 45 54 63 66 64 65 67 69 68 67 65 66 65 66 67 67 67 66 67 68 67 68 66 66 66 64 60
15 15 10 10 14 16 17 16 18 21 18 17 21 24 24 28 30 32 33 35 41 50 56 61 64 64 64 65 66 68 69 69 69 66 66 67 67 65 68 68 69 69 68 66 66 66 63 63 60
16 14 8 4 5 7 14 14 14 19 20 21 25 27 31 35 38 40 38 38 44 56 63 64 64 64 65 66 67 68 69 66 67 67 66 65 65 66 69 68 68 67 67 65 65 61 60 62 61
17 17 19 9 10 4 6 15 17 19 19 22 26 32 37 45 49 47 41 53 59 63 65 64 64 66 66 67 68 69 68 68 67 69 68 65 67 66 67 67 67 65 64 63 64 59 62 62 65
25 27 28 10 7 6 6 10 11 17 17 20 27 30 40 53 46 44 54 63 64 65 65 67 67 66 67 67 67 67 68 68 68 67 66 66 66 66 66 65 64 63 62 62 64 61 63 64 67
30 29 30 20 10 6 4 7 17 24 27 28 28 31 47 53 50 55 61 64 64 64 65 66 66 66 66 66 66 67 66 66 66 66 66 66 66 65 63 62 61 60 61 62 64 64 63 62 63
26 30 30 29 19 12 15 17 26 28 26 29 29 31 47 55 56 60 62 62 62 63 64 64 65 64 64 65 65 65 65 65 65 65 65 64 63 61 60 59 58 58 59 62 62 61 60 61 61

GFSSGP_sfc_dewp_033.txt.gz
Dewpoint
56 48 41 29 26 16 15 11 14 19 23 30 32 32 34 37 34 40 44 46 47 57 66 71 75 75 74 74 75 75 76 76 76 75 75 74 73 72 70 69 67 66 65 63 60 59 59 60 60
42 42 31 27 21 16 9 14 17 27 30 33 35 35 37 37 40 46 46 50 52 61 66 63 75 75 75 74 73 74 75 75 75 75 74 73 72 71 69 68 67 65 63 62 61 60 61 62 62
55 39 24 20 21 13 12 13 24 28 35 35 33 35 36 38 42 43 52 52 54 63 66 64 75 75 75 74 73 73 73 74 74 74 73 72 72 71 70 68 66 64 63 63 63 63 63 63 63
41 30 26 22 14 16 13 22 24 30 34 34 34 34 38 43 43 45 52 52 58 61 63 71 74 74 74 74 74 73 73 73 73 73 72 72 71 71 69 68 67 65 64 64 64 64 64 65 65
40 29 21 15 17 16 13 19 30 32 32 35 35 35 37 43 44 48 50 52 56 58 61 69 74 74 74 74 74 73 73 73 73 73 72 71 71 70 69 68 67 66 65 65 65 65 65 65 65
35 27 18 15 15 13 14 18 24 33 32 34 35 36 38 46 48 44 46 48 50 55 60 66 73 74 74 74 73 73 73 73 72 72 71 71 70 70 69 69 68 67 68 67 66 66 67 67 67
35 27 20 15 15 15 15 16 19 27 30 32 36 35 40 45 47 42 43 43 46 51 57 63 70 71 74 73 73 73 72 72 71 71 70 70 70 70 69 69 69 69 69 69 69 68 68 68 68
36 32 26 19 16 15 14 14 15 25 29 34 36 35 40 43 44 40 41 42 45 50 54 57 67 65 66 66 73 73 72 71 71 71 70 70 70 70 70 69 69 69 69 70 70 69 69 69 70
37 32 28 24 21 19 16 15 16 22 26 34 37 38 40 44 46 43 42 44 44 47 53 57 61 66 64 59 65 72 72 72 71 70 71 69 61 62 62 64 67 70 70 70 70 69 69 70 70
37 33 30 27 24 22 20 16 17 20 25 30 35 37 39 45 45 42 42 43 45 47 50 55 64 64 64 57 62 68 64 65 65 64 65 64 63 61 58 62 68 70 70 70 70 70 70 69 63
36 34 32 29 28 26 25 21 16 16 25 31 35 37 37 38 43 43 42 42 42 45 48 50 67 69 66 62 59 65 66 65 66 67 66 67 61 62 60 60 61 65 68 64 67 67 66 66 63
30 33 34 33 31 28 28 27 24 19 19 27 33 36 37 39 40 40 40 39 39 40 42 46 53 69 72 63 61 59 61 65 64 65 68 66 64 65 65 60 61 66 62 64 64 63 67 66 65
27 29 29 31 32 32 31 29 27 26 23 22 24 33 35 37 39 41 41 43 45 44 46 47 52 68 72 73 64 65 64 62 65 64 67 67 63 66 63 64 60 63 60 62 64 65 66 66 64
19 18 21 24 28 31 31 31 30 29 29 28 26 27 31 35 40 40 40 43 46 48 48 48 50 70 71 72 74 71 71 66 65 64 66 69 65 66 63 66 63 61 62 61 62 63 64 64 64
20 18 19 20 21 25 32 32 33 34 33 31 31 31 35 39 39 40 43 49 45 47 51 58 60 64 73 75 73 70 64 66 63 63 71 71 70 69 68 65 63 61 64 68 66 67 65 63 64
21 19 16 19 21 22 25 28 31 33 34 34 34 34 35 37 38 40 40 45 50 53 54 60 50 58 71 73 71 67 63 61 60 62 64 70 72 71 70 64 64 64 64 63 61 62 59 63 62
13 16 15 13 16 20 21 25 29 32 34 35 35 35 35 37 39 44 40 44 46 52 56 58 62 56 67 70 65 67 70 63 60 60 62 69 70 70 69 66 64 69 63 62 62 61 63 62 61
4 5 11 13 13 14 17 22 24 26 29 34 34 34 33 34 35 38 40 44 47 56 61 63 60 64 68 63 68 60 58 61 63 62 62 69 69 68 71 67 67 67 63 61 61 65 62 63 61
6 6 9 10 10 13 16 19 20 23 26 27 31 32 35 38 35 38 40 42 45 55 59 63 64 68 64 56 55 55 52 59 62 64 69 68 68 69 71 67 68 67 64 65 67 65 66 64 66
10 10 8 11 14 17 19 18 19 22 24 26 29 30 32 34 35 37 40 46 51 55 58 62 64 67 68 59 63 57 60 57 61 63 69 68 67 69 69 69 67 68 63 68 68 67 62 61 66
12 11 12 11 16 18 21 21 23 21 23 26 27 29 30 32 35 38 39 46 49 52 57 59 63 66 68 67 64 67 66 66 62 64 65 67 67 69 70 69 69 70 66 62 67 66 67 62 66
13 11 11 13 17 15 20 16 23 25 25 26 27 29 30 32 33 35 39 44 48 50 51 57 61 66 67 71 64 69 63 61 61 64 65 67 68 68 69 69 69 69 65 67 66 66 66 68 65
13 11 12 13 13 17 16 15 19 22 21 23 27 27 29 31 32 32 33 36 39 45 51 56 62 66 67 68 68 61 67 62 63 64 70 70 70 70 68 69 69 69 65 68 68 70 70 66 61
12 11 14 14 12 11 18 15 16 18 20 22 24 24 26 26 29 31 32 38 36 39 40 52 61 64 67 68 69 72 71 69 65 66 67 68 68 68 68 67 69 69 67 71 68 70 68 66 64
14 13 7 9 9 12 18 16 19 21 21 21 21 22 24 27 28 30 30 29 35 39 42 45 51 61 66 66 67 68 71 73 72 69 66 67 67 67 68 69 69 67 71 69 68 67 66 65 62
16 15 8 6 6 6 11 14 16 22 22 23 22 23 24 28 30 35 35 34 34 40 51 55 58 63 65 64 66 68 69 66 68 68 66 67 66 68 70 69 70 68 67 65 67 64 62 64 61
22 15 20 17 19 14 17 17 16 21 20 21 24 26 31 35 38 40 42 41 38 45 59 62 63 64 64 65 67 69 68 70 67 71 72 67 70 68 68 69 67 66 65 65 67 61 62 64 65
23 21 22 31 15 11 16 13 11 17 20 21 24 28 32 44 46 44 42 44 55 61 63 65 65 65 66 67 67 68 70 70 69 71 69 69 70 69 67 67 66 65 64 64 64 62 62 63 67
32 27 27 26 20 18 10 16 17 19 20 21 26 30 43 51 46 46 53 59 61 63 64 66 65 66 66 67 69 69 68 68 68 67 67 67 68 65 64 63 63 62 62 62 63 63 61 61 64
19 25 26 29 29 17 16 18 30 28 26 30 28 31 42 54 56 59 59 59 60 61 62 64 65 64 66 66 67 67 67 67 67 66 65 64 64 63 62 60 59 58 58 61 61 61 60 61 62

GFSSGP_sfc_dewp_036.txt.gz
Dewpoint
55 43 42 33 25 20 16 10 16 14 12 16 28 30 31 36 42 43 46 52 64 64 70 73 75 74 75 76 77 77 77 76 76 76 76 75 74 73 72 71 70 68 65 64 61 59 60 60 61
42 37 38 28 22 18 13 10 10 13 17 27 29 31 33 39 44 43 45 52 66 65 70 70 75 74 74 75 76 76 76 76 76 76 75 74 74 73 71 70 69 67 64 61 60 59 60 61 61
53 48 29 22 22 20 14 11 11 15 30 29 31 33 35 41 45 47 53 60 66 66 67 70 75 74 74 74 75 75 75 75 76 75 75 74 73 72 71 70 69 66 63 62 61 61 62 62 62
45 42 27 22 20 17 19 18 15 21 34 34 34 32 35 44 45 50 53 62 65 65 64 73 75 75 74 74 74 74 75 75 75 75 74 73 73 72 71 70 69 67 64 63 64 64 64 64 64
45 35 23 16 15 18 19 17 14 25 30 32 33 33 36 43 49 51 53 58 60 63 63 72 74 75 75 74 74 73 73 74 74 74 73 73 72 72 71 69 68 68 67 66 66 67 67 66 66
39 33 24 18 17 17 16 16 15 29 31 31 33 34 36 43 50 52 51 54 55 60 64 71 74 74 74 74 74 73 73 73 73 73 73 72 72 71 70 69 69 68 68 68 68 68 68 68 68
40 35 27 19 16 14 15 16 14 17 28 32 34 34 38 41 47 46 49 50 51 57 65 70 70 73 74 74 74 73 73 73 73 72 72 72 71 70 70 69 69 69 69 69 69 69 69 70 70
36 37 32 27 22 17 16 15 14 14 19 28 32 39 46 48 47 43 43 44 47 53 61 68 70 68 69 70 74 73 73 73 72 72 72 71 71 70 70 69 69 69 69 70 70 70 70 70 70
32 34 33 30 26 22 20 17 16 15 14 25 32 40 44 45 45 42 41 41 45 50 55 66 69 69 66 64 69 73 73 72 72 71 71 70 67 66 66 67 67 69 70 70 70 71 71 71 71
32 33 34 32 30 28 24 21 20 16 15 20 31 41 43 45 47 43 40 41 44 49 53 59 70 67 65 60 66 70 69 70 70 68 68 68 66 64 62 65 68 69 70 71 71 71 71 70 67
30 32 35 34 31 29 27 26 24 19 17 20 26 37 38 44 46 44 41 42 43 48 52 57 69 70 66 63 66 68 66 67 67 67 66 67 65 64 63 61 63 68 69 67 69 69 69 67 66
21 27 31 34 34 33 31 29 26 25 21 19 23 33 39 39 43 44 43 44 55 51 53 61 68 71 71 66 66 68 67 66 65 65 66 65 65 64 63 61 63 64 65 65 65 65 66 66 66
15 19 26 28 31 33 33 32 30 28 28 26 22 27 39 40 43 46 48 52 58 59 60 59 70 72 73 75 71 68 67 67 66 66 66 65 65 63 63 64 63 63 64 64 64 65 66 67 67
18 16 15 19 28 29 29 30 32 32 31 29 30 27 35 40 42 45 49 52 56 59 67 61 63 74 74 73 74 75 72 70 69 67 67 66 65 65 64 64 64 66 64 64 63 65 65 66 67
20 19 18 18 17 19 24 27 29 33 33 31 32 31 31 36 41 40 48 52 57 58 63 64 65 75 74 73 74 73 73 69 70 68 70 68 68 67 65 65 64 62 66 66 64 64 67 67 66
14 17 16 17 17 18 19 18 23 30 33 35 34 33 34 34 32 40 47 53 59 58 59 62 52 65 74 74 74 73 71 71 69 68 69 71 69 67 68 65 65 66 64 65 66 64 65 65 64
11 8 9 13 15 14 16 19 22 25 30 35 37 38 37 38 41 44 46 50 57 61 63 66 66 65 73 75 73 73 72 71 69 68 67 71 71 68 67 67 67 68 66 65 63 65 66 64 66
6 2 3 5 6 11 13 17 22 25 26 29 33 35 37 39 39 44 49 50 54 62 65 67 68 69 71 72 72 69 68 67 67 66 67 71 70 70 69 68 68 70 64 64 66 64 64 64 65
10 9 6 7 6 9 13 16 18 21 23 26 30 35 36 38 41 43 48 47 57 62 65 68 68 69 69 68 66 65 63 63 65 67 70 71 71 70 71 68 70 67 67 65 67 66 65 65 66
14 12 11 12 11 12 13 14 19 20 23 25 31 31 33 37 39 42 43 47 59 61 64 67 69 70 69 66 66 66 65 62 62 67 71 71 72 70 70 70 68 69 67 67 68 65 64 65 66
14 14 15 10 11 12 14 14 19 20 23 24 26 31 33 34 37 41 45 53 57 59 63 64 66 67 67 66 67 69 68 69 68 70 70 71 71 71 70 70 69 69 67 65 67 67 65 62 65
12 12 13 12 11 8 13 13 21 21 23 25 28 28 32 35 36 37 41 46 54 57 58 64 66 65 65 69 66 67 63 63 66 70 69 70 70 70 70 70 69 71 67 67 66 66 65 65 65
15 17 13 12 11 12 10 10 16 22 21 24 28 31 31 32 36 36 38 41 46 48 51 56 59 64 65 67 67 65 68 67 70 69 72 70 71 71 69 70 69 70 67 67 66 67 66 65 67
20 17 16 12 9 10 11 11 11 15 21 23 26 28 30 31 32 33 37 41 42 46 50 56 62 63 67 66 70 69 68 66 68 71 69 69 69 69 69 69 69 69 68 68 67 67 68 68 66
28 15 8 7 7 6 10 10 15 18 18 20 23 25 27 32 34 37 35 35 41 44 47 55 62 66 67 66 67 69 67 72 72 71 68 68 68 68 68 68 69 68 68 69 70 69 68 67 65
27 25 17 7 6 5 8 11 13 18 21 23 25 26 29 33 32 36 41 45 39 46 53 55 57 62 64 65 68 69 69 71 72 70 68 67 67 68 68 69 68 68 68 69 69 68 67 66 65
24 16 21 20 18 14 17 10 17 19 19 22 24 27 29 32 35 37 37 45 42 45 56 58 59 61 66 68 69 70 70 72 70 70 69 68 68 67 68 69 69 69 68 68 68 67 66 66 65
16 18 22 24 18 10 11 10 9 17 18 21 24 27 31 33 35 39 44 48 52 55 62 66 68 68 67 68 69 69 70 71 70 70 69 69 70 69 69 69 68 68 67 66 67 66 65 65 66
20 26 26 28 30 24 19 13 17 34 35 29 24 28 32 36 45 54 47 49 59 62 65 67 66 67 67 68 69 70 70 70 71 70 69 70 70 69 68 67 66 66 66 66 66 66 64 63 64
15 23 30 26 21 18 17 19 26 38 38 37 30 34 37 46 53 57 54 55 57 61 64 66 66 67 68 68 68 68 68 68 68 68 68 68 68 67 66 65 63 62 63 65 64 63 62 62 63

GFSSGP_sfc_dewp_042.txt.gz
Dewpoint
56 51 42 41 25 25 22 22 22 20 16 20 18 23 35 42 42 40 54 59 64 66 71 74 76 77 77 76 76 76 76 76 76 75 75 74 74 72 71 71 71 69 66 65 64 62 62 61 61
54 47 38 35 22 20 21 23 21 20 18 19 19 29 42 42 51 59 58 62 61 68 70 72 76 76 76 76 76 76 76 76 76 75 75 74 74 73 71 70 69 67 65 64 62 62 62 63 63
54 51 42 31 23 20 20 22 22 22 22 22 22 33 44 44 57 57 62 60 64 68 69 71 76 76 76 76 76 76 75 75 75 75 75 74 74 73 72 71 69 67 65 63 62 62 63 64 64
45 46 42 24 20 21 22 21 22 22 22 20 20 40 47 49 52 61 63 62 62 67 68 72 75 76 76 76 76 76 76 76 75 75 75 74 74 73 72 71 70 68 65 63 63 65 65 65 65
50 42 33 26 21 20 20 21 22 21 21 18 22 35 44 51 62 63 62 61 62 65 67 72 75 75 76 76 76 76 76 75 75 75 75 74 74 73 71 71 69 68 67 66 65 67 68 68 67
46 40 32 28 27 26 25 24 22 20 18 17 30 41 47 57 62 62 60 59 61 64 68 70 74 75 75 75 75 75 75 75 75 75 75 74 74 73 72 71 70 69 69 68 68 69 69 69 69
36 42 35 31 30 31 30 29 19 17 17 16 32 42 49 49 60 63 60 59 59 64 68 69 71 73 75 75 75 75 75 75 75 74 74 74 73 72 72 71 70 70 70 69 69 69 69 69 69
34 40 38 38 37 36 36 33 28 27 28 23 23 40 46 49 56 59 62 60 60 68 67 69 70 71 71 72 74 74 74 74 74 74 74 73 73 72 72 70 70 69 70 70 70 70 70 70 70
28 29 29 36 37 36 36 34 35 33 29 29 29 42 49 51 55 56 60 61 66 66 68 68 70 71 71 70 71 73 74 74 73 73 73 72 71 70 69 69 69 69 69 70 70 70 70 70 70
24 32 31 31 34 34 33 34 35 35 34 34 29 46 50 50 51 51 56 59 64 65 67 67 68 69 70 69 69 70 70 70 70 70 70 70 67 67 68 68 69 69 69 70 70 70 71 70 68
22 22 32 33 33 33 33 33 33 32 32 34 30 30 49 52 49 51 52 57 60 64 66 66 66 66 67 65 69 70 69 70 69 68 68 67 66 66 67 66 67 66 68 67 68 69 69 68 67
18 19 21 26 29 29 29 30 29 29 31 33 36 33 42 50 56 48 54 58 62 65 66 68 68 66 64 61 66 67 67 68 68 68 67 66 65 64 64 63 64 64 65 65 65 67 68 67 67
18 17 17 18 20 28 29 28 27 27 29 32 34 35 31 49 51 54 58 60 60 65 69 69 68 66 65 61 63 66 65 65 65 66 66 66 65 63 62 62 62 62 64 65 65 65 66 67 67
15 18 17 16 18 19 20 23 24 25 28 29 32 36 33 37 49 53 57 59 59 58 61 64 65 67 67 63 63 64 65 64 64 64 65 65 64 62 62 60 61 61 63 65 64 63 64 65 64
20 17 17 17 18 19 21 18 19 20 25 29 31 31 32 33 37 51 53 56 56 57 58 63 59 59 59 63 64 65 65 65 64 64 64 65 63 63 61 60 60 61 62 63 63 62 62 63 64
18 17 13 15 14 18 19 16 19 21 21 21 24 28 30 36 35 38 44 50 52 54 53 57 61 64 65 64 65 66 66 66 65 65 65 65 64 63 62 60 59 61 62 62 63 62 61 62 63
16 13 13 13 12 13 17 16 19 21 20 20 20 22 24 28 37 39 41 45 45 50 51 56 62 65 66 66 66 67 67 66 66 67 66 65 65 64 63 62 62 61 62 62 62 62 61 62 62
12 11 12 11 8 11 8 10 12 16 16 19 20 20 22 25 28 38 41 42 46 47 49 52 62 65 66 67 67 68 68 69 68 67 67 67 66 65 63 63 62 61 61 63 62 62 62 61 62
20 17 15 15 16 16 13 14 15 16 17 16 18 19 21 24 27 39 42 42 43 47 53 52 56 67 68 69 69 68 67 67 68 67 67 67 68 67 65 64 63 63 61 62 63 62 62 61 62
15 15 14 17 17 14 16 16 16 16 15 16 17 19 19 24 24 27 38 38 40 43 51 56 57 60 67 66 67 66 66 65 67 67 67 66 68 68 67 65 65 63 62 62 63 62 60 62 62
21 17 23 19 16 18 17 15 15 16 17 17 18 21 23 25 26 27 29 35 38 44 52 56 57 60 65 65 62 61 61 61 61 61 61 63 66 69 68 66 65 65 64 62 62 63 61 60 62
20 26 26 24 23 16 15 11 13 15 15 16 15 16 20 24 27 31 32 36 40 45 53 56 57 57 58 58 59 58 56 56 57 56 61 62 65 68 68 67 66 66 65 64 63 63 62 61 62
22 28 27 26 24 20 17 13 14 13 12 12 13 17 19 21 25 28 30 32 34 41 52 55 57 58 56 56 55 55 54 55 59 60 60 62 66 68 69 68 66 66 66 64 64 64 63 63 63
27 28 25 23 22 16 17 14 14 13 12 11 13 18 17 17 18 25 32 33 36 38 47 53 56 57 58 58 58 56 56 59 60 61 63 64 65 67 68 68 67 67 67 65 65 65 65 63 63
24 25 21 17 15 12 16 14 14 15 14 28 35 35 36 36 31 29 27 29 30 33 42 48 53 55 56 56 57 59 58 58 60 61 64 64 64 65 67 67 67 67 67 67 65 66 64 64 63
20 27 23 19 17 18 22 18 16 22 33 36 35 35 35 37 38 39 40 31 29 30 32 41 45 48 54 57 56 58 60 59 60 63 65 66 66 66 66 66 66 66 66 66 66 66 65 64 62
25 26 28 27 28 27 24 22 22 33 34 35 34 33 32 36 38 41 42 44 39 32 32 33 37 45 50 53 58 60 61 61 63 65 65 66 65 66 65 66 66 66 67 67 66 64 64 64 61
22 22 19 27 20 18 19 20 20 29 32 34 31 30 32 35 36 41 43 45 48 45 34 34 36 41 52 59 61 64 63 63 65 66 66 66 66 66 65 65 65 67 67 66 65 64 64 63 60
20 25 29 30 29 22 18 17 34 34 34 33 31 30 33 35 37 41 42 41 42 53 48 42 46 54 60 62 63 65 66 66 66 66 66 66 65 65 65 65 66 66 65 64 63 63 62 61 60
25 25 27 21 21 27 23 22 33 35 34 33 31 33 37 37 41 42 41 38 41 50 58 59 59 60 62 64 65 66 68 66 65 65 66 66 65 65 66 66 66 65 64 63 62 61 61 60 60

GFSSGP_sfc_dewp_045.txt.gz
Dewpoint
59 50 42 39 25 24 24 22 24 21 19 20 19 19 19 25 41 41 55 58 64 65 74 76 76 77 76 76 76 75 75 75 75 74 74 74 73 73 72 72 71 70 66 65 64 63 61 60 60
60 46 39 32 23 19 18 23 21 21 21 21 22 21 30 39 49 57 56 60 61 67 73 75 76 77 76 76 76 75 75 75 75 74 74 74 73 73 71 71 69 68 66 65 64 62 62 61 62
58 50 40 33 24 19 16 21 22 22 23 23 22 23 30 44 57 57 56 61 59 67 72 73 76 76 76 76 75 75 75 75 75 75 74 74 73 73 71 71 70 67 66 64 63 63 63 63 63
45 48 41 29 22 22 21 22 22 22 21 22 21 20 38 49 58 57 60 58 62 66 69 74 76 76 76 76 75 75 75 75 75 75 75 74 74 73 72 71 70 69 66 64 63 65 65 64 64
49 42 37 28 25 22 21 21 21 21 21 20 20 22 42 52 63 62 59 59 59 65 66 73 75 76 76 76 75 75 75 75 75 75 75 74 74 73 72 71 70 69 67 65 65 66 68 67 66
45 40 32 30 25 25 27 26 25 23 21 20 19 28 47 61 62 61 59 56 61 63 67 71 75 75 75 75 75 75 75 75 75 75 75 74 74 73 72 71 70 70 69 68 68 68 68 69 68
38 40 35 32 30 29 32 33 31 25 27 30 29 39 48 52 62 60 58 58 60 62 67 69 72 74 75 75 75 75 75 74 74 74 74 74 74 73 72 71 70 70 70 69 69 69 69 69 68
35 41 40 39 32 34 37 35 33 31 34 35 31 32 46 54 62 61 59 60 65 64 65 68 71 73 73 73 75 75 75 74 74 74 74 74 74 73 72 71 70 70 70 70 70 70 70 70 69
29 30 32 37 37 36 37 34 36 37 35 36 36 38 42 60 61 60 59 64 66 65 66 68 69 69 70 70 73 75 75 75 74 74 74 73 72 71 70 70 70 70 70 70 70 70 70 70 69
22 28 29 33 37 35 32 32 32 33 32 33 35 36 36 55 59 58 57 57 62 64 66 68 68 69 68 68 68 70 72 73 72 72 72 71 69 68 69 70 69 70 70 70 70 70 70 69 67
21 25 31 33 33 33 33 32 31 31 30 35 33 35 35 48 51 55 55 56 56 61 64 66 68 68 68 67 68 68 68 68 70 69 69 69 67 67 68 66 67 66 68 66 68 68 68 67 67
18 20 21 23 25 27 26 26 25 25 26 30 33 35 36 34 51 51 53 57 63 64 64 65 65 66 67 65 67 68 67 67 67 67 66 66 65 65 65 65 64 64 64 64 65 65 66 66 66
17 18 18 18 17 18 21 23 25 24 25 28 31 35 35 34 42 52 55 60 61 64 65 66 65 64 64 63 63 65 66 66 66 66 66 66 65 64 63 64 63 63 63 64 64 64 65 66 66
19 20 19 19 17 18 18 17 21 20 24 24 28 31 34 34 40 53 56 58 61 64 66 67 66 65 63 61 60 62 64 64 64 65 66 66 64 63 63 62 62 61 62 63 64 63 63 64 64
21 17 17 16 16 17 20 17 17 20 24 22 23 28 33 34 35 52 55 56 59 62 66 67 66 66 66 63 61 60 62 63 62 62 64 65 64 62 62 61 61 60 61 62 63 62 62 62 62
17 16 12 14 15 14 19 14 17 21 21 22 21 22 27 32 35 44 53 55 57 57 58 66 66 64 63 64 64 62 63 63 63 62 63 64 64 62 61 60 59 60 61 61 62 62 61 61 61
16 10 15 13 14 12 18 16 17 15 16 17 20 22 24 26 33 38 45 52 52 54 55 55 61 58 57 57 61 62 64 64 63 64 64 64 64 63 62 60 60 60 61 61 61 61 60 60 61
16 14 14 12 12 12 10 13 16 17 17 16 17 18 19 22 25 30 41 42 48 51 53 53 55 61 61 62 62 64 64 65 65 65 65 65 65 64 63 62 61 60 60 61 61 61 61 60 61
20 20 19 19 19 15 14 15 16 17 17 16 17 18 20 22 23 28 35 43 44 48 50 51 51 57 63 64 64 64 65 66 66 66 66 66 66 65 64 63 62 61 60 61 61 61 61 60 61
18 16 20 21 24 20 17 16 17 19 17 16 17 19 19 21 22 25 29 37 44 44 47 49 49 50 62 64 65 65 64 65 66 68 67 67 67 66 65 64 64 62 61 61 62 61 60 61 61
22 24 24 24 25 23 19 16 16 18 17 16 17 18 20 22 22 23 25 31 36 41 44 47 49 49 52 64 65 62 62 61 64 64 65 67 67 68 67 66 64 63 62 61 62 62 61 59 61
17 23 26 26 24 19 22 16 17 18 17 16 15 15 17 17 20 22 24 28 31 36 38 42 51 54 54 61 63 62 61 61 60 63 63 63 66 66 68 67 65 65 64 63 62 63 62 61 61
19 28 27 25 23 22 20 16 15 17 16 17 17 17 24 26 29 28 25 26 30 32 37 44 48 56 57 62 63 62 60 58 57 56 57 60 61 65 67 67 66 65 65 64 63 62 62 64 63
28 25 24 23 22 18 16 16 12 12 16 16 25 34 35 36 36 37 37 38 37 33 35 43 51 55 57 59 61 60 59 55 56 57 58 59 62 65 66 67 66 66 66 64 64 65 64 64 64
22 21 17 17 14 15 20 19 15 18 17 28 32 34 35 36 36 37 38 40 42 40 33 35 47 53 56 56 57 56 55 54 55 55 57 60 62 63 65 66 66 66 66 65 65 65 65 64 63
18 22 19 16 17 17 20 20 21 26 32 35 35 35 35 34 34 35 39 42 43 43 49 46 37 49 53 56 55 55 55 53 54 57 61 62 63 64 66 67 66 66 66 66 65 66 65 64 64
24 24 25 22 23 21 22 25 23 30 30 33 33 33 32 30 31 34 36 42 43 43 43 45 49 38 49 54 55 55 57 57 58 60 62 63 64 65 65 66 66 66 66 65 64 65 64 64 62
22 25 21 26 20 17 20 21 20 23 23 31 31 30 30 29 30 34 35 41 42 42 41 44 51 40 41 50 54 55 57 59 60 62 63 64 64 65 65 65 65 65 66 65 65 65 64 62 61
22 22 27 26 27 21 16 17 25 27 33 32 30 31 30 30 33 37 37 41 42 40 40 49 53 45 41 48 52 57 60 61 63 64 64 65 65 65 65 65 65 65 65 65 65 64 63 62 61
27 26 25 23 21 25 23 19 31 31 32 33 33 33 32 32 36 37 38 41 40 38 48 51 55 50 49 56 60 61 63 64 64 64 64 64 64 65 66 66 66 66 65 64 63 62 62 61 59

GFSSGP_sfc_dewp_048.txt.gz
Dewpoint
63 50 41 35 23 23 22 20 24 22 19 19 19 19 23 24 42 40 55 61 61 66 73 74 76 77 76 76 76 75 75 75 74 74 74 74 74 74 74 73 73 71 69 67 65 63 62 61 60
61 46 39 31 22 16 14 23 21 21 22 22 23 22 22 21 26 46 58 59 60 67 73 74 76 76 76 75 75 75 75 75 74 74 74 74 74 73 73 72 71 69 67 65 64 63 62 62 62
54 50 36 32 24 16 14 19 21 23 23 23 23 23 23 36 54 55 58 60 61 68 72 74 76 76 76 75 75 75 75 75 75 74 74 74 73 73 72 71 70 68 66 65 63 63 63 63 63
46 48 39 31 23 23 19 22 23 21 22 23 23 21 24 51 57 58 59 60 62 68 72 74 76 76 75 75 75 75 75 75 75 74 74 74 73 72 72 71 70 69 66 65 64 66 66 64 64
47 43 36 31 27 24 22 22 21 22 23 22 23 23 28 59 62 60 59 58 61 68 70 74 75 75 75 75 75 75 75 74 74 74 74 74 73 72 72 71 71 70 69 67 66 67 68 67 66
46 39 34 31 24 26 27 25 26 25 25 26 32 31 39 60 61 59 57 57 63 66 69 73 75 75 75 75 75 75 74 74 74 74 74 74 73 72 71 71 71 70 69 68 68 68 68 69 68
42 39 36 33 31 30 32 35 33 30 33 33 34 35 43 52 59 58 57 61 62 64 70 72 73 74 75 75 75 74 74 74 74 74 74 74 73 73 71 71 70 71 70 69 69 69 69 69 68
37 42 39 38 31 33 37 36 36 35 34 36 36 34 36 54 60 59 63 64 63 64 68 69 71 73 73 74 75 75 74 74 74 74 74 74 74 73 72 70 70 71 70 70 70 70 70 70 69
33 31 34 36 36 36 37 35 36 35 35 33 36 37 38 62 59 58 62 64 64 64 65 68 70 71 72 72 74 75 75 75 74 74 74 73 73 72 71 70 70 70 70 70 70 70 70 70 69
25 28 29 33 37 35 34 34 33 32 31 32 34 34 35 60 60 57 55 58 61 62 65 67 68 70 70 71 72 73 73 73 73 73 73 72 71 70 70 70 70 71 70 70 70 70 71 69 68
23 25 31 32 30 31 30 28 27 26 25 34 29 30 31 37 49 54 56 53 55 59 62 66 67 68 68 68 69 70 70 71 71 71 71 71 69 70 70 68 69 68 70 67 69 69 69 68 67
18 21 21 21 20 21 21 23 21 22 23 26 29 30 33 36 40 49 54 58 57 58 60 64 66 67 67 66 67 68 69 68 68 68 68 68 67 66 67 66 66 66 66 66 66 66 67 67 67
17 19 19 19 19 17 17 17 18 18 22 24 27 29 34 34 36 49 54 59 62 62 62 64 66 66 66 65 66 67 67 67 67 67 66 67 66 65 65 65 64 65 64 65 64 64 65 66 66
21 21 19 18 17 17 17 16 17 19 23 22 25 28 30 33 36 48 55 58 61 63 63 64 64 64 65 64 63 65 66 66 66 66 66 66 66 65 64 64 63 63 63 64 64 63 64 64 65
22 17 16 15 16 16 18 17 17 19 23 22 23 22 24 28 33 36 49 56 59 62 63 64 65 64 63 63 62 61 63 64 63 64 65 65 65 64 63 62 62 62 62 63 64 63 63 63 64
17 13 7 11 16 14 18 12 19 17 17 19 22 22 24 26 30 33 39 53 59 61 65 66 64 64 63 60 57 57 59 62 62 62 63 65 65 64 63 61 61 62 61 62 62 62 62 62 62
17 13 16 13 15 13 16 16 19 18 16 17 19 27 20 21 24 28 32 44 54 58 59 64 68 66 65 64 63 64 64 61 61 62 62 63 64 64 62 61 61 61 61 61 61 62 62 61 61
15 16 16 16 16 20 18 16 16 18 18 17 18 19 21 22 24 27 31 34 41 52 59 61 62 64 62 61 63 65 65 64 64 64 63 64 64 64 63 62 61 61 61 61 61 62 62 62 61
20 19 19 20 20 22 19 19 19 19 19 18 18 19 21 24 24 28 30 34 41 45 51 56 57 60 62 63 63 63 64 66 66 66 66 65 65 65 64 63 62 61 61 61 62 62 62 62 63
18 17 21 23 23 23 21 19 20 19 19 19 20 19 20 21 24 26 29 33 36 43 47 51 54 56 60 61 64 64 64 65 66 67 67 67 66 66 65 64 63 62 61 62 62 62 61 62 63
20 21 22 24 27 24 21 11 17 19 20 19 19 21 20 21 22 24 26 31 34 37 43 46 50 53 55 61 64 64 64 64 65 66 67 67 67 67 66 65 64 64 63 61 62 63 62 61 62
16 22 26 26 21 16 21 14 12 18 19 20 18 18 19 20 29 32 34 33 34 35 37 42 45 48 51 55 63 64 62 61 62 62 66 67 68 68 67 66 66 65 64 63 62 64 63 63 61
16 26 25 23 21 22 21 19 14 14 13 16 17 18 21 33 35 36 37 36 38 40 39 40 44 46 50 53 58 62 62 60 61 62 64 65 65 67 67 68 67 65 64 64 63 64 63 64 63
26 24 21 22 21 17 19 18 14 12 13 16 20 26 33 35 35 36 37 39 41 43 43 39 41 48 53 56 57 58 60 61 60 60 60 61 62 63 65 67 67 66 66 65 64 64 64 64 65
21 18 15 12 12 13 18 19 18 21 21 20 22 28 33 35 35 34 34 34 37 41 44 46 48 45 49 56 59 62 62 62 61 60 59 59 60 62 64 66 66 66 66 66 65 65 65 65 64
19 19 16 12 13 11 17 18 20 25 26 31 34 35 35 35 34 33 34 35 35 40 44 46 46 47 49 52 57 60 62 62 61 60 58 58 59 62 65 66 67 66 66 66 66 66 66 65 65
24 21 22 19 21 17 18 21 25 25 26 33 33 33 33 32 32 31 32 35 36 40 43 44 43 44 51 47 54 57 58 58 57 58 59 60 62 63 65 66 67 67 67 67 66 66 65 66 64
23 25 21 24 19 16 16 18 18 22 25 26 27 29 29 31 31 31 34 37 39 41 43 43 43 44 51 50 50 54 57 58 58 59 60 62 63 65 66 66 67 67 67 66 66 66 65 64 64
22 21 26 24 25 19 16 15 24 21 23 24 28 30 32 32 32 31 33 37 38 40 42 42 42 48 52 52 48 54 56 58 59 60 61 63 64 65 66 66 66 66 66 66 66 65 64 63 63
25 25 25 25 22 25 22 18 23 25 28 31 31 32 34 32 32 32 34 37 39 41 41 39 46 50 54 55 49 52 57 59 60 61 63 64 65 66 66 66 66 66 66 65 65 64 63 63 62

GFSSGP_sfc_dewp_051.txt.gz
Dewpoint
59 51 41 37 24 24 19 18 24 22 20 21 21 20 20 23 32 26 58 62 58 63 70 74 76 76 76 75 76 76 76 76 76 76 76 76 76 76 75 75 74 73 71 69 66 64 63 62 61
54 45 39 33 19 13 13 20 20 19 20 22 22 22 21 21 23 27 45 61 61 67 73 72 76 76 76 75 75 75 75 75 75 75 76 75 75 75 75 74 73 71 69 66 65 64 63 62 62
52 49 38 33 24 11 11 17 21 21 21 22 22 24 23 25 39 41 57 59 61 66 71 73 76 76 75 75 75 74 74 75 75 75 75 74 74 74 74 73 72 70 67 66 65 64 64 64 64
46 48 38 29 18 24 17 22 23 21 18 23 24 26 27 58 58 61 61 58 62 65 67 74 75 75 75 75 75 74 74 74 74 74 74 74 74 73 73 72 71 70 68 66 66 67 66 65 65
46 44 29 28 24 26 23 22 22 18 22 25 30 31 35 52 53 61 60 58 60 64 66 72 75 75 75 75 75 75 75 74 74 74 74 74 73 73 72 72 71 70 70 68 68 68 68 68 66
43 41 32 26 24 25 27 27 27 27 27 31 33 35 40 44 58 59 59 57 59 63 66 70 75 75 75 75 75 74 74 74 74 74 74 74 73 73 72 71 71 71 70 69 69 69 69 69 69
40 39 28 29 30 31 30 36 34 33 34 33 35 35 38 42 59 58 58 58 61 62 64 69 71 74 75 75 74 74 74 74 74 74 74 73 73 72 72 71 71 71 70 69 69 70 69 69 68
39 41 32 32 28 29 37 37 37 35 32 35 34 34 35 44 60 59 59 59 60 61 61 66 69 71 71 72 75 75 74 74 74 74 74 73 73 72 72 71 71 71 71 70 70 70 70 70 69
38 32 27 30 32 31 37 34 35 35 33 34 34 33 33 44 59 59 58 58 59 61 64 66 68 70 70 68 71 75 75 74 74 74 74 73 69 70 69 68 69 71 71 70 70 70 70 70 68
28 24 26 33 32 33 32 34 32 31 31 29 31 31 30 28 52 56 56 55 56 59 63 65 69 69 70 69 71 72 71 71 72 72 73 71 71 71 68 69 70 71 71 71 71 71 71 69 61
24 21 30 30 31 31 31 30 30 27 27 29 27 28 27 27 39 42 55 55 56 57 61 64 69 70 70 68 70 71 71 71 71 72 72 72 71 71 70 68 67 67 69 62 64 64 62 62 62
17 21 20 23 20 20 24 21 21 24 26 25 25 24 25 29 34 42 41 54 56 57 58 63 67 69 71 68 68 69 69 71 69 70 72 71 70 70 70 67 66 68 64 64 64 61 63 64 64
17 18 20 19 18 18 18 18 19 18 20 20 23 27 29 31 36 41 51 59 59 56 59 61 66 68 69 69 67 69 68 69 69 69 71 71 69 69 68 68 67 66 64 64 64 62 63 63 63
20 21 20 18 17 17 16 16 16 18 21 21 21 22 24 27 28 35 48 58 62 61 60 62 65 68 68 68 68 68 69 68 68 67 68 70 69 69 66 67 66 65 64 63 63 62 62 61 60
22 19 17 16 16 16 17 15 16 19 22 23 25 24 26 27 28 32 39 49 58 62 63 65 66 67 68 67 67 66 65 65 65 66 68 68 69 69 68 64 64 64 65 66 65 64 63 61 60
18 15 11 15 16 15 17 6 16 19 19 20 21 20 21 23 27 30 34 40 52 61 64 66 62 64 67 67 66 64 64 65 64 63 64 67 68 67 67 64 62 63 64 62 62 62 60 60 59
18 13 14 15 17 20 18 17 19 21 21 23 25 23 21 24 28 37 38 38 44 56 64 68 68 64 66 66 65 65 65 64 63 63 63 66 66 66 66 64 63 65 62 61 61 61 61 60 61
11 13 17 16 18 20 17 17 19 21 22 23 24 24 24 24 27 34 37 39 42 48 59 65 69 69 68 66 66 62 64 64 64 63 63 65 65 66 66 64 65 64 61 61 61 63 63 62 62
17 17 15 18 21 20 17 17 16 18 22 22 24 26 27 28 29 31 35 39 40 45 50 56 64 70 70 68 65 64 62 64 66 66 68 67 66 65 66 66 64 64 63 64 65 64 65 63 64
19 16 17 20 22 20 15 15 17 18 21 21 24 25 27 28 28 31 34 40 45 47 50 51 55 63 67 67 68 66 66 65 65 66 68 68 66 67 67 68 66 66 64 66 66 66 64 64 64
18 16 18 16 21 21 21 10 16 16 23 23 23 26 26 28 29 32 37 42 44 46 49 50 52 55 62 66 67 68 67 67 66 66 68 69 68 68 69 69 68 67 66 65 67 66 67 64 64
13 18 20 19 17 11 20 5 13 16 16 19 22 26 25 27 29 33 39 41 43 44 47 51 53 54 53 61 63 68 64 63 63 65 66 68 69 69 69 70 69 69 67 68 67 66 66 66 64
13 21 22 21 19 20 14 15 13 18 13 15 19 20 23 25 28 36 37 39 41 43 46 51 53 54 56 57 61 61 65 62 64 64 70 72 71 70 69 70 70 69 68 68 68 67 68 66 65
25 21 21 22 20 12 17 16 8 12 14 20 20 23 24 28 34 37 37 40 40 41 43 48 52 56 56 56 58 61 64 66 63 65 64 64 66 69 70 70 70 70 69 69 68 68 68 67 66
23 21 11 7 10 7 20 16 14 20 20 20 22 25 28 33 36 37 35 35 38 40 43 46 47 52 53 54 55 59 63 65 66 66 62 64 64 65 69 70 70 69 70 70 69 68 68 68 67
21 21 14 9 7 8 16 14 14 22 24 25 31 32 35 35 35 36 36 36 36 39 43 45 47 50 50 51 55 58 61 60 62 65 63 63 63 63 69 69 69 70 69 69 69 67 67 68 68
23 20 22 21 21 19 15 16 21 21 23 26 27 29 32 34 34 35 35 36 37 40 43 46 47 48 50 50 55 58 59 63 63 68 69 64 67 63 67 67 68 68 69 69 70 68 69 69 69
24 24 23 27 18 14 12 15 15 19 21 21 22 26 29 33 33 35 35 35 37 41 42 47 49 49 50 50 53 55 58 61 63 65 66 66 66 65 66 67 69 69 69 70 70 70 70 69 68
23 24 26 26 26 20 16 13 24 23 23 25 25 26 30 32 32 33 32 34 36 39 40 45 47 48 47 49 53 57 57 60 61 62 63 64 65 65 65 66 68 68 70 70 70 70 68 68 67
26 26 26 25 24 23 22 19 23 26 25 30 30 30 30 32 33 32 34 35 37 38 40 42 45 45 45 49 53 56 59 60 60 61 62 63 64 65 64 66 67 68 69 70 69 68 67 66 66

GFSSGP_sfc_dewp_057.txt.gz
Dewpoint
57 43 30 29 21 17 19 18 12 11 12 15 24 25 26 27 29 34 48 50 47 61 67 72 77 77 78 77 77 77 77 76 76 76 76 76 76 76 76 76 75 74 72 70 68 66 64 63 61
46 40 34 25 16 16 16 18 15 13 14 17 19 22 23 25 33 33 49 54 48 64 68 68 76 77 78 77 77 77 77 76 76 76 76 76 76 76 76 75 74 73 71 69 66 64 63 62 60
48 38 34 22 16 11 15 15 16 12 12 14 17 18 22 30 41 43 49 55 53 64 67 68 76 77 77 77 77 77 77 77 76 76 76 76 76 76 76 75 74 72 70 67 65 64 64 63 62
40 37 30 23 18 17 14 17 16 14 12 15 19 23 23 39 42 46 55 55 56 61 65 73 75 76 77 77 77 77 77 77 76 76 76 76 76 76 75 75 74 73 69 67 66 66 66 64 64
38 34 29 26 22 19 18 16 17 14 14 12 14 23 28 41 42 49 57 55 55 57 63 72 75 76 76 77 77 76 76 76 76 76 76 76 76 75 75 74 73 72 70 69 68 68 68 68 66
35 34 28 24 23 23 23 17 18 18 19 17 16 24 31 42 39 50 57 56 53 54 61 70 74 75 75 76 76 76 76 76 76 76 76 76 75 74 74 73 73 72 71 70 69 69 69 69 68
31 32 29 26 25 24 25 25 23 24 23 22 22 26 32 37 35 48 57 56 55 54 57 68 68 73 75 75 75 75 75 75 75 75 75 75 74 74 73 73 72 72 72 71 70 70 70 69 68
28 30 28 27 25 23 26 28 28 27 26 29 31 29 34 37 35 37 55 55 55 53 54 63 65 68 69 71 75 75 75 75 74 74 74 74 74 73 73 72 72 72 72 71 71 71 70 70 69
25 26 24 25 25 26 25 25 31 32 30 29 29 30 33 34 33 32 39 55 54 52 54 61 61 66 66 63 71 74 75 75 74 74 74 73 66 68 68 67 71 72 72 72 71 71 70 70 68
23 23 23 23 24 25 26 26 30 32 32 32 30 31 32 33 32 31 35 46 54 54 52 56 65 64 64 57 67 68 68 69 70 69 70 69 67 65 61 65 71 71 72 72 71 71 70 67 55
23 22 21 21 23 23 23 25 29 31 32 32 31 30 31 32 32 32 32 40 50 55 53 53 66 70 65 58 63 64 63 66 67 68 70 70 65 65 63 61 63 65 69 61 65 63 62 59 56
18 22 22 22 19 22 24 27 28 29 30 32 31 30 30 29 30 31 33 39 49 54 56 55 64 68 71 59 59 62 59 64 64 65 71 70 66 70 69 62 62 68 61 63 60 59 64 62 60
17 19 20 21 21 22 24 25 24 25 28 26 26 26 26 29 30 31 33 39 48 55 56 58 61 68 71 73 62 62 61 61 63 63 68 67 66 70 68 68 62 63 61 60 63 61 61 61 61
16 16 17 18 20 21 20 19 20 22 25 22 23 23 25 28 29 30 32 34 50 53 58 57 60 70 70 72 74 69 68 64 63 63 66 71 68 71 65 67 63 62 60 59 60 62 61 60 60
14 14 16 14 17 18 19 17 17 19 20 20 20 22 24 27 28 30 32 35 41 52 56 64 63 68 73 74 72 71 65 64 64 64 71 71 73 72 71 64 64 64 66 72 68 66 63 60 59
15 14 9 8 9 10 11 11 12 14 16 18 20 20 23 28 29 29 30 37 43 46 58 66 59 65 71 72 72 69 66 66 63 65 65 70 73 72 72 65 65 66 66 63 65 64 61 59 59
15 9 8 6 8 9 9 11 12 15 19 21 22 23 24 26 32 34 33 36 42 46 52 65 70 64 70 72 70 71 71 66 65 67 64 69 70 70 71 67 66 70 64 63 67 66 65 62 62
10 11 9 9 14 15 13 14 14 17 19 22 21 23 24 25 28 32 34 34 38 45 53 57 67 71 71 69 71 68 66 66 65 63 63 65 68 69 71 67 69 67 65 63 64 67 65 64 63
14 13 13 12 12 14 17 17 15 16 18 19 20 23 24 26 28 30 32 34 38 47 52 54 57 70 70 71 66 67 65 64 65 64 67 67 67 68 70 67 67 68 66 68 70 67 68 64 67
13 12 12 13 13 16 18 17 18 18 18 19 22 22 23 25 27 30 32 36 44 43 51 52 55 57 68 70 70 68 66 63 63 63 64 66 67 69 68 68 66 68 64 71 71 71 65 66 67
13 13 14 13 15 16 16 16 17 16 18 18 18 20 21 24 26 29 31 35 40 45 46 47 53 58 61 67 72 73 74 73 68 64 63 65 66 68 68 69 66 67 68 66 71 71 72 64 66
13 12 12 13 14 11 16 11 15 14 14 15 16 19 21 24 28 30 32 36 38 41 42 48 51 57 58 65 64 68 70 69 68 68 67 66 69 69 69 68 69 70 68 70 71 71 71 71 64
14 14 14 14 14 16 14 12 14 15 13 15 18 18 20 23 25 26 28 31 34 40 43 47 53 54 60 61 63 63 65 67 68 66 69 72 72 70 69 69 71 73 70 72 73 75 74 69 66
16 15 17 16 15 13 15 12 9 11 15 14 18 18 19 20 23 26 34 37 38 38 38 43 48 57 55 57 62 65 66 65 62 65 68 66 71 72 73 70 73 74 73 74 73 75 75 73 71
18 20 13 12 12 11 14 11 14 16 16 15 17 18 21 25 28 29 33 33 34 36 36 40 43 46 52 57 56 61 64 66 68 66 64 65 63 65 72 73 74 73 76 75 74 75 75 73 71
18 21 14 13 11 7 16 13 15 17 20 21 20 24 25 27 30 32 32 33 33 36 37 38 41 44 46 49 54 59 62 54 55 61 60 61 62 64 71 75 73 75 74 74 75 72 72 73 72
18 16 19 18 17 15 12 16 16 22 22 22 23 23 24 28 30 30 32 33 33 36 40 41 42 45 47 48 56 59 59 61 59 66 68 59 65 62 68 74 74 74 73 74 75 72 73 72 73
22 21 24 22 14 10 9 12 11 20 22 22 22 23 25 26 27 30 31 32 34 36 37 44 48 48 46 51 53 51 55 58 61 64 66 67 68 68 67 69 72 73 73 74 75 73 73 72 69
21 20 19 20 26 24 15 12 22 26 23 23 23 25 27 28 28 29 31 34 35 36 36 43 41 43 45 46 50 52 52 52 58 61 63 65 69 70 69 67 69 71 72 73 74 72 70 70 72
18 21 26 21 19 15 16 14 19 26 24 26 25 28 28 30 30 31 33 34 34 35 36 38 41 39 41 43 47 49 52 54 58 60 62 65 67 68 68 67 67 67 70 73 72 70 65 69 68

GFSSGP_sfc_dewp_060.txt.gz
Dewpoint
55 43 37 28 23 20 19 21 22 14 10 13 24 25 24 30 35 48 55 54 63 65 72 75 77 78 77 77 77 76 76 76 76 76 76 76 76 76 76 76 75 74 73 70 68 67 65 64 63
45 44 37 29 22 17 19 20 19 15 15 16 19 23 24 35 44 50 53 55 64 66 72 73 77 77 77 77 77 76 76 76 76 76 76 76 76 76 76 75 75 73 71 69 67 64 63 63 62
46 44 33 28 19 16 17 17 16 13 12 13 15 18 23 39 42 44 53 55 66 67 70 74 77 77 77 77 77 76 76 76 76 76 76 76 76 76 75 75 74 73 70 68 65 66 66 65 64
38 38 35 26 23 17 15 16 16 16 13 12 15 19 21 40 42 46 53 55 63 67 66 75 77 77 77 77 77 77 76 76 76 76 76 76 76 76 75 75 74 73 71 68 68 68 67 66 65
34 35 32 29 23 22 21 18 17 16 15 12 15 20 28 41 42 47 54 53 53 64 65 73 76 77 77 77 77 77 77 76 76 76 76 76 76 75 75 75 74 73 71 69 69 68 68 68 67
29 33 30 26 25 26 23 20 17 14 16 17 14 15 29 39 38 43 54 54 51 60 66 73 76 77 76 77 77 77 76 76 76 76 76 76 76 75 75 74 74 72 71 70 70 69 69 69 68
26 29 30 28 26 25 25 24 20 17 19 20 23 16 30 36 36 35 52 54 53 56 65 71 72 75 77 76 76 76 76 76 76 76 76 76 75 74 74 73 73 72 72 71 70 70 70 70 69
24 28 27 28 27 25 26 25 24 23 24 25 30 27 34 38 38 33 35 54 52 52 62 69 69 71 74 75 76 75 75 75 75 75 75 75 74 74 73 72 72 72 72 71 71 71 70 70 70
23 23 23 23 24 26 26 25 27 27 27 27 28 29 30 34 35 33 35 44 53 52 60 66 66 70 70 71 74 75 75 75 75 74 75 73 72 71 70 70 71 72 72 72 71 71 71 70 70
21 20 20 20 21 22 24 25 25 29 29 30 31 30 30 31 33 32 32 39 55 55 55 62 67 67 67 64 73 73 73 73 73 73 73 72 71 70 65 68 71 71 72 72 71 71 71 70 62
20 21 20 19 19 19 20 21 25 29 30 32 31 32 32 33 38 34 32 39 46 56 55 62 67 69 66 63 72 69 70 70 71 71 72 72 69 70 66 67 66 69 71 66 68 68 67 63 61
15 19 21 20 20 19 18 20 21 26 34 33 33 34 33 32 35 34 34 39 45 61 61 64 66 69 71 64 69 67 66 68 68 69 71 71 70 70 70 66 66 67 66 65 64 64 64 63 62
11 13 16 19 20 20 20 19 21 23 31 31 34 33 32 32 34 39 38 47 54 61 64 64 68 70 69 74 67 67 65 66 67 69 70 70 68 71 71 72 69 68 67 65 65 63 66 65 64
11 12 15 17 19 20 19 20 21 24 27 26 26 28 27 27 30 37 43 45 54 57 63 66 67 72 72 73 74 75 67 68 67 68 69 70 71 69 71 72 71 70 70 68 65 66 67 67 65
13 12 14 15 16 18 19 19 19 21 21 20 22 26 25 26 28 35 44 50 58 59 65 64 70 72 73 73 75 74 74 68 67 68 70 70 71 73 71 70 70 70 70 71 71 70 70 68 66
15 14 10 11 12 15 16 16 18 20 20 20 20 22 23 25 27 33 42 50 53 58 62 64 64 70 72 72 72 74 73 70 71 70 72 71 71 73 74 70 70 69 71 71 69 69 68 66 65
14 12 9 7 8 7 10 12 12 12 15 18 21 23 21 26 32 39 40 51 56 59 62 66 71 71 71 73 72 73 73 73 72 73 70 72 72 71 72 70 70 72 70 69 69 70 68 67 65
10 8 10 10 8 7 7 9 11 12 15 17 20 21 24 25 31 39 43 48 53 59 61 65 69 71 72 71 72 71 71 71 71 70 69 70 70 71 71 70 71 72 69 68 68 69 68 67 66
12 12 13 14 11 14 15 16 16 16 18 19 23 26 28 29 31 37 43 46 48 57 62 62 68 71 71 70 68 68 68 68 67 68 68 68 69 70 71 70 70 71 69 67 69 68 68 66 68
16 14 14 14 14 14 15 15 17 19 21 22 25 26 27 29 30 35 42 47 50 59 61 63 64 70 70 68 70 68 67 68 68 66 68 69 68 69 69 69 68 69 66 67 67 68 66 66 67
15 13 12 10 12 14 15 16 18 17 20 22 22 26 26 30 32 35 39 45 50 54 59 58 63 65 67 71 72 71 71 72 71 66 66 66 66 66 69 70 68 68 67 64 67 69 68 65 68
12 12 12 13 13 12 15 12 17 17 17 21 22 24 24 26 30 34 38 44 49 52 55 57 60 61 63 67 69 71 70 67 69 70 69 68 68 68 69 68 68 67 68 66 66 69 69 68 65
12 13 14 13 13 14 13 11 14 17 14 16 20 18 21 24 28 31 35 39 45 48 52 58 60 61 61 64 66 66 67 68 65 67 69 67 66 70 68 69 69 68 68 67 68 67 70 70 69
15 15 16 16 15 13 14 12 12 12 15 16 18 19 20 20 26 29 35 41 42 48 50 56 60 58 60 61 65 67 66 66 67 66 62 65 65 65 66 70 70 69 67 65 69 70 71 71 71
17 19 13 14 14 14 15 13 16 18 17 15 19 19 22 24 27 29 36 37 42 43 47 49 52 58 57 59 61 61 64 65 65 66 66 64 64 66 66 70 66 65 62 62 65 64 71 74 71
18 19 18 16 18 18 19 23 14 18 18 19 20 21 21 26 29 32 35 40 37 42 46 48 52 54 56 58 58 60 61 63 61 62 62 62 66 67 65 68 66 62 62 64 64 67 72 73 73
24 16 19 23 27 22 17 19 23 21 20 21 21 23 25 28 32 34 37 39 40 44 48 49 48 52 53 55 59 61 62 62 59 62 65 63 67 65 67 67 67 65 67 70 69 71 72 73 73
24 22 20 25 20 15 12 14 13 24 22 21 22 23 25 27 28 32 33 38 44 46 46 53 54 53 53 54 56 55 59 60 61 63 63 64 64 64 67 66 70 70 71 71 73 73 73 73 72
26 23 21 28 29 27 20 19 31 29 31 30 29 25 26 28 27 29 31 37 40 43 43 50 52 52 51 52 54 57 56 58 60 60 61 61 65 66 66 66 67 70 72 73 73 73 72 72 71
22 25 26 28 26 21 20 17 30 30 28 35 31 28 25 28 29 29 30 34 35 37 39 42 48 48 48 49 52 55 57 59 60 58 60 63 63 65 65 66 66 65 65 70 72 72 71 71 70

GFSSGP_sfc_dewp_063.txt.gz
Dewpoint
56 45 43 37 25 24 20 21 23 23 20 18 21 37 46 46 47 46 58 64 70 73 76 77 77 77 77 77 76 76 76 76 76 76 76 76 76 76 76 75 75 74 72 70 68 67 65 64 63
50 45 43 33 24 20 19 19 19 13 14 15 17 23 43 43 51 52 61 65 69 72 75 76 77 77 77 77 76 76 76 76 76 76 76 76 76 76 75 75 74 73 70 68 67 65 63 62 61
47 44 39 32 22 20 18 19 17 16 12 13 16 20 39 43 46 51 62 66 69 71 73 76 77 77 77 77 76 75 76 76 76 76 76 76 76 75 75 75 74 73 70 68 65 65 65 64 61
35 38 39 30 27 25 18 18 18 17 16 13 16 27 41 46 47 49 62 65 68 69 72 77 77 76 76 76 76 76 76 76 76 76 76 76 76 75 75 75 74 73 70 67 66 68 67 66 64
28 34 32 32 29 25 25 24 21 16 16 17 15 24 40 45 47 51 55 66 66 66 73 76 77 77 76 76 76 76 76 76 76 76 76 76 76 75 75 74 74 73 71 70 68 69 68 67 67
27 30 30 29 30 30 29 24 17 16 15 17 18 17 40 39 36 45 55 56 66 65 73 75 77 77 76 76 76 76 76 76 76 76 76 76 75 75 75 74 74 73 71 70 70 69 69 68 68
22 25 26 29 30 30 29 25 17 15 17 17 26 28 39 35 35 35 50 54 64 68 71 73 75 76 77 76 76 76 76 76 75 75 75 75 75 75 74 73 73 72 71 71 70 70 69 69 69
24 24 23 25 27 28 30 26 21 18 19 23 33 31 36 39 35 33 34 51 63 69 71 72 75 75 75 75 76 76 76 76 75 75 75 75 75 74 73 72 72 72 71 71 70 70 70 70 69
23 21 21 23 26 26 26 25 25 23 23 26 29 31 36 35 33 31 33 36 60 68 69 70 73 74 74 74 75 75 76 75 75 75 75 74 72 72 72 71 71 72 72 71 71 71 70 70 70
18 19 20 22 23 22 21 20 22 27 28 29 32 33 33 34 32 31 32 35 54 63 67 68 70 71 71 72 74 74 74 74 74 73 73 72 71 70 70 70 71 71 71 72 71 71 71 70 67
17 16 20 21 20 20 19 19 20 24 28 30 31 33 35 34 32 32 32 43 55 62 62 65 68 69 68 70 73 73 73 73 72 72 72 71 69 69 68 66 67 68 70 69 70 69 69 67 65
13 17 18 20 21 21 20 20 20 21 34 34 37 37 38 32 33 31 33 39 46 61 61 63 66 66 65 71 70 70 71 71 71 71 71 70 68 66 66 65 65 66 66 66 64 66 65 65 62
13 14 14 18 20 20 21 21 21 21 37 37 34 37 38 33 37 32 35 41 45 53 62 63 65 65 64 69 68 67 68 68 69 69 70 69 67 67 67 64 64 65 65 65 63 62 63 63 62
14 12 12 11 13 17 19 19 20 22 28 29 32 32 33 30 30 30 34 37 47 52 59 64 65 65 65 68 67 65 65 66 67 68 69 70 67 66 67 67 67 67 65 65 64 62 61 63 62
15 14 13 13 15 16 17 17 19 23 24 23 23 24 30 30 29 29 34 37 49 51 59 65 67 68 66 70 71 70 65 66 66 67 68 68 69 65 66 68 66 67 67 66 65 64 65 65 64
14 15 13 12 13 14 17 13 17 21 21 23 23 22 22 28 28 28 33 41 53 54 55 59 65 69 67 69 69 69 70 69 64 66 67 68 68 70 68 69 68 67 66 67 66 65 64 64 63
15 12 12 13 14 12 13 13 17 21 18 17 20 24 22 24 30 32 41 46 55 56 57 60 66 69 69 70 71 70 69 69 69 68 69 68 68 69 70 69 68 68 67 67 65 66 65 63 63
13 11 11 12 12 10 9 9 13 18 16 16 21 21 28 30 29 30 48 48 54 53 53 56 65 68 69 68 69 70 70 69 68 67 67 70 70 69 70 69 69 68 68 65 64 65 66 64 63
13 12 11 13 15 14 12 11 16 18 21 18 19 20 24 25 28 32 45 48 54 53 53 54 62 66 69 69 68 68 67 67 67 67 66 66 70 71 69 68 69 69 67 65 64 64 65 63 64
15 15 16 17 16 13 16 18 18 18 20 21 23 26 24 27 28 33 41 44 47 49 55 54 56 64 67 68 68 67 67 67 65 65 65 65 66 68 69 70 68 68 66 65 65 64 63 65 65
12 15 16 14 14 13 15 17 21 20 19 18 19 22 28 28 30 33 40 42 46 52 54 54 57 60 64 68 67 67 68 68 66 66 65 66 66 66 68 69 68 68 66 64 64 64 65 64 65
11 15 13 13 15 14 18 13 16 19 19 19 18 17 21 28 32 33 34 43 44 46 51 51 52 54 56 61 68 66 64 65 67 66 64 65 65 65 66 69 68 66 66 64 64 66 67 67 66
12 16 14 18 16 15 13 14 13 17 14 16 20 19 20 21 27 35 39 42 46 49 47 48 49 52 53 56 60 66 66 67 66 67 68 67 66 68 68 68 68 67 65 65 66 65 66 68 68
17 19 19 19 16 14 14 15 13 14 14 15 19 21 23 22 29 32 36 38 39 46 49 48 50 52 53 55 57 60 61 62 65 64 62 64 66 65 66 69 68 68 67 66 67 68 68 67 65
18 17 15 16 15 13 15 17 15 19 19 17 18 22 21 23 26 36 36 36 37 37 43 49 51 50 50 52 53 54 56 60 60 61 63 64 64 64 64 65 68 68 68 67 66 67 64 62 61
35 30 20 17 20 19 25 26 27 27 24 24 25 25 26 25 28 33 36 36 35 38 37 38 43 46 48 51 52 55 55 59 58 59 59 59 64 64 63 63 65 66 64 62 63 64 61 62 62
32 30 30 23 19 24 24 24 25 24 25 23 23 23 24 26 31 30 38 38 35 39 39 40 38 40 39 41 48 50 53 56 57 56 58 61 62 65 66 65 67 66 65 63 63 64 62 62 64
29 32 28 32 24 20 21 21 17 30 28 24 26 27 25 26 31 33 35 36 37 39 41 40 40 41 41 42 43 49 52 53 55 57 58 58 57 59 61 65 66 66 66 66 65 64 64 64 61
26 30 32 32 32 24 23 22 31 32 33 30 29 30 26 27 28 31 30 33 38 38 37 41 46 47 46 45 45 48 49 51 53 56 58 60 60 61 61 63 63 65 66 67 66 65 65 66 66
29 34 35 32 29 29 24 21 29 32 35 36 34 34 34 32 28 27 28 31 34 34 35 39 40 41 44 48 48 48 50 52 53 54 55 57 58 59 61 63 63 64 65 68 66 66 68 69 70

GFSSGP_sfc_dewp_069.txt.gz
Dewpoint
57 47 44 34 23 24 21 21 23 19 16 16 46 46 44 50 46 42 61 66 73 74 75 76 77 77 76 76 76 75 75 75 75 75 75 75 76 76 76 76 75 74 72 70 68 67 66 65 66
50 42 41 32 23 20 19 22 18 19 19 16 30 45 46 49 57 61 63 70 72 74 75 75 77 76 76 76 75 75 75 75 75 75 75 75 75 75 75 75 74 72 70 68 67 65 64 63 63
30 43 38 32 24 20 20 20 22 22 20 17 32 41 43 47 56 61 66 71 74 73 74 75 77 76 76 76 75 75 75 75 75 75 75 75 75 75 74 74 73 71 69 68 66 64 65 64 63
26 33 37 32 29 26 22 26 27 28 19 17 33 39 44 49 50 62 68 72 73 73 74 76 76 76 76 75 75 75 75 75 75 75 75 75 75 74 74 74 73 71 69 67 66 66 66 65 63
29 32 31 33 32 31 29 32 31 29 21 23 34 38 41 45 62 66 68 70 72 73 74 75 76 76 76 75 75 75 75 75 75 75 75 75 74 74 74 74 72 71 69 67 66 66 67 66 64
23 30 30 29 30 32 33 33 31 29 26 35 36 35 37 40 62 65 66 67 70 73 74 75 76 76 75 75 75 75 75 75 75 75 75 75 74 74 74 74 73 72 70 69 68 68 67 66 66
22 26 26 29 29 30 32 33 29 26 26 22 33 32 34 36 52 65 64 65 69 72 73 73 75 75 75 75 75 75 74 75 75 75 75 75 74 74 74 73 73 72 71 70 70 68 68 67 68
22 23 23 24 25 25 28 30 29 27 24 24 35 33 32 33 35 64 65 64 68 72 73 73 73 74 74 74 75 75 74 74 74 75 75 74 74 74 73 72 72 71 71 70 70 69 68 68 68
24 21 21 23 24 24 26 25 28 26 24 23 26 35 35 36 38 58 64 64 70 70 72 72 72 74 74 74 74 75 75 75 74 74 74 73 72 72 72 72 72 71 71 71 70 70 69 68 68
22 20 21 23 24 23 24 24 24 22 22 22 25 34 34 33 36 60 63 66 68 68 71 71 71 72 73 73 73 73 73 73 73 73 73 72 71 70 71 71 72 72 71 71 71 70 70 69 66
19 19 20 20 22 23 22 21 22 21 19 21 21 30 33 32 45 59 64 66 66 69 70 71 71 71 71 71 73 72 73 73 73 72 72 71 71 71 71 69 70 68 70 67 69 68 68 66 66
16 16 17 17 17 19 21 21 21 22 22 23 26 33 33 32 39 51 61 66 67 68 69 71 71 70 71 71 71 71 72 71 71 71 71 70 69 69 68 67 66 66 66 65 65 66 65 65 66
12 13 13 13 15 17 18 18 19 19 22 25 25 31 33 32 31 46 58 59 65 67 68 70 71 70 71 71 70 70 70 70 71 71 71 70 69 68 67 66 65 64 64 64 64 63 63 63 63
17 16 16 15 14 15 15 16 18 18 23 24 25 34 34 32 32 32 42 56 58 64 67 68 70 71 71 71 70 70 71 71 71 71 71 70 68 66 66 65 64 64 64 63 63 62 62 62 62
17 14 15 15 15 14 15 14 15 19 23 25 28 34 31 35 34 32 31 42 55 59 65 67 68 69 70 70 71 71 71 71 70 70 71 70 68 66 64 65 64 64 64 63 64 63 63 62 62
14 15 14 14 16 15 14 11 14 20 21 23 23 23 24 28 34 33 32 32 45 55 62 65 67 67 67 69 69 69 69 70 70 69 70 70 69 66 66 64 64 66 65 65 65 64 64 64 64
14 11 12 13 14 14 13 13 16 18 19 21 22 25 25 25 29 34 33 32 39 54 61 64 66 66 66 68 67 66 67 67 67 68 68 69 69 67 65 65 66 66 66 66 66 66 65 63 63
10 11 12 13 14 16 13 14 16 18 18 17 19 22 25 26 26 27 33 33 42 55 61 64 65 65 66 67 68 67 66 66 67 66 66 67 68 68 66 64 64 67 67 66 65 64 64 64 64
15 15 14 15 16 16 15 16 16 17 18 16 17 21 21 23 25 29 34 46 53 57 60 65 67 67 67 68 67 67 67 67 67 68 67 67 67 68 67 66 67 66 65 66 66 64 63 63 64
18 16 16 17 17 17 17 16 16 16 17 18 19 20 21 23 25 41 49 52 53 55 59 62 64 67 68 68 67 66 67 67 66 67 68 69 68 67 67 67 68 68 67 66 66 64 63 63 64
17 16 17 16 17 17 16 14 15 19 20 19 20 24 22 24 23 29 46 50 49 50 54 58 62 64 66 67 67 66 66 66 66 65 66 67 68 68 68 67 67 68 68 67 66 65 63 62 63
14 16 17 17 16 12 17 11 15 16 17 18 17 17 19 21 25 27 43 47 47 49 52 54 57 62 64 66 65 63 63 64 65 65 65 66 67 66 69 69 67 67 67 67 66 65 64 63 62
19 22 20 18 16 15 16 12 15 18 15 16 17 18 18 20 23 27 38 45 45 48 52 55 57 56 57 59 62 63 62 63 63 64 64 64 65 66 67 67 68 68 68 67 67 65 64 64 63
30 24 19 19 16 13 14 14 13 15 15 16 18 20 21 21 21 24 31 42 45 50 52 53 53 52 53 56 58 59 59 61 62 63 63 63 64 65 65 66 66 67 67 66 66 65 62 65 66
34 29 21 17 14 14 17 17 16 20 21 24 25 29 28 27 27 25 37 42 48 47 48 48 48 48 50 52 55 57 57 57 57 59 62 62 62 63 65 65 65 66 66 66 66 66 66 65 65
34 34 31 24 17 17 21 19 17 26 29 30 30 32 29 31 25 27 37 41 46 46 44 45 46 47 48 51 50 51 53 56 57 57 57 58 60 62 63 63 64 64 67 66 66 66 66 66 66
34 33 37 34 34 29 26 23 24 23 26 28 31 33 34 32 32 36 39 42 46 44 44 45 44 46 47 48 48 49 50 52 53 55 55 56 56 57 59 62 62 63 63 66 66 66 66 66 65
35 37 29 33 25 24 23 22 21 23 26 29 31 33 34 36 37 36 36 36 38 42 43 45 45 45 46 46 48 48 50 50 50 50 50 52 53 56 57 57 60 62 62 63 63 63 64 63 63
32 34 35 34 32 25 22 21 26 32 35 33 32 35 35 36 37 37 38 39 37 36 37 43 44 44 44 44 44 43 43 46 48 49 49 50 52 53 55 56 57 60 62 62 63 63 63 63 62
31 33 34 26 28 32 30 25 33 36 35 35 34 32 35 36 37 37 37 37 38 37 36 38 41 41 41 40 39 39 40 42 44 45 47 49 50 52 55 57 58 60 61 62 63 64 64 64 64